ZL1TQN Weather Reports


Display with metric or nautical units.
time (UTC)temp
F
wind
direction
speed
MPH
gust
MPH
rain 1hr
in
rain 24hr
in
rain mn
in
humidity
%
barometer
mb
20260505070006 58 157 1.0 2.0 0.00 0.00 0.00 85 1032.1
20260505065506 58 157 1.0 2.0 0.00 0.00 0.00 84 1032.1
20260505065006 58 157 1.0 2.0 0.00 0.00 0.00 84 1032.2
20260505064505 58 153 1.0 3.0 0.00 0.00 0.00 84 1032.1
20260505064006 58 158 2.0 3.0 0.00 0.00 0.00 84 1032.2
20260505063505 58 149 2.0 3.0 0.00 0.00 0.00 84 1032.2
20260505063006 58 145 2.0 3.0 0.00 0.00 0.00 84 1032.2
20260505062506 58 140 1.0 2.0 0.00 0.00 0.00 83 1032.2
20260505062006 59 140 1.0 2.0 0.00 0.00 0.00 83 1032.2
20260505061505 59 140 1.0 2.0 0.00 0.00 0.00 83 1032.2
20260505061006 59 140 1.0 2.0 0.00 0.00 0.00 82 1032.2
20260505060006 60 76 0.0 0.0 0.00 0.00 0.00 80 1032.2
20260505055506 60 76 0.0 0.0 0.00 0.00 0.00 80 1032.1
20260505055006 60 76 0.0 0.0 0.00 0.00 0.00 80 1032.0
20260505054005 61 76 0.0 1.0 0.00 0.00 0.00 79 1031.9
20260505053506 61 76 0.0 1.0 0.00 0.00 0.00 78 1031.8
20260505053006 62 76 0.0 1.0 0.00 0.00 0.00 78 1031.8
20260505052505 62 76 0.0 1.0 0.00 0.00 0.00 76 1031.8
20260505052006 62 76 0.0 1.0 0.00 0.00 0.00 76 1031.8
20260505051506 62 76 0.0 1.0 0.00 0.00 0.00 76 1031.8
20260505051006 63 76 0.0 1.0 0.00 0.00 0.00 76 1031.8
20260505041506 66 29 0.0 1.0 0.00 0.00 0.00 69 1031.8
20260505041006 66 29 0.0 2.0 0.00 0.00 0.00 69 1031.8
20260505040006 66 49 0.0 3.0 0.00 0.00 0.00 68 1031.8
20260505035507 66 31 0.0 2.0 0.00 0.00 0.00 69 1031.8
20260505035006 66 23 0.0 2.0 0.00 0.00 0.00 69 1031.8
20260505034506 66 28 0.0 2.0 0.00 0.00 0.00 69 1031.8
20260505033506 66 48 1.0 3.0 0.00 0.00 0.00 69 1031.9
20260505033006 66 48 1.0 3.0 0.00 0.00 0.00 70 1031.9
20260505032506 66 50 1.0 3.0 0.00 0.00 0.00 69 1031.8
20260505031505 66 75 0.0 3.0 0.00 0.00 0.00 69 1031.9
20260505031006 66 20 1.0 3.0 0.00 0.00 0.00 68 1031.8
20260505030006 66 16 1.0 3.0 0.00 0.00 0.00 68 1031.8
20260505025505 66 31 1.0 5.0 0.00 0.00 0.00 68 1031.8
20260505025006 66 40 1.0 5.0 0.00 0.00 0.00 68 1031.7
20260505024505 67 18 1.0 3.0 0.00 0.00 0.00 67 1031.7
20260505024006 67 33 1.0 3.0 0.00 0.00 0.00 68 1031.7
20260505023506 67 39 1.0 5.0 0.00 0.00 0.00 67 1031.7
20260505023006 67 113 2.0 5.0 0.00 0.00 0.00 65 1031.7
20260505022506 67 5 1.0 3.0 0.00 0.00 0.00 66 1031.7
20260505022005 67 36 2.0 5.0 0.00 0.00 0.00 67 1031.8
20260505021506 67 46 2.0 5.0 0.00 0.00 0.00 67 1031.8
20260505021006 67 71 2.0 3.0 0.00 0.00 0.00 67 1031.8
20260505020005 68 44 1.0 5.0 0.00 0.00 0.00 67 1032.0
20260505015505 68 13 2.0 5.0 0.00 0.00 0.00 66 1032.1
20260505015005 68 35 1.0 7.0 0.00 0.00 0.00 67 1032.1
20260505014505 68 46 3.0 7.0 0.00 0.00 0.00 67 1032.2
20260505014005 68 36 2.0 3.0 0.00 0.00 0.00 65 1032.2
20260505013505 68 100 2.0 3.0 0.00 0.00 0.00 64 1032.2
20260505012005 67 2 1.0 3.0 0.00 0.00 0.00 64 1032.3
20260505011506 67 144 1.0 3.0 0.00 0.00 0.00 64 1032.3
20260505011005 68 92 1.0 3.0 0.00 0.00 0.00 65 1032.3
20260505010005 67 104 2.0 3.0 0.00 0.00 0.00 66 1032.6
20260505005506 67 121 1.0 3.0 0.00 0.00 0.00 64 1032.7
20260505005006 67 113 2.0 3.0 0.00 0.00 0.00 65 1032.8
20260505004505 67 189 2.0 3.0 0.00 0.00 0.00 64 1032.8
20260505004005 67 69 1.0 3.0 0.00 0.00 0.00 67 1032.8
20260505003506 68 93 1.0 3.0 0.00 0.00 0.00 66 1032.9
20260505003005 67 187 1.0 3.0 0.00 0.00 0.00 65 1033.1
20260505002005 68 312 1.0 2.0 0.00 0.00 0.00 65 1033.3
20260505001505 68 84 0.0 1.0 0.00 0.00 0.00 67 1033.3
20260505001006 67 87 1.0 2.0 0.00 0.00 0.00 66 1033.3
20260504235505 66 17 2.0 3.0 0.00 0.00 0.00 65 1033.4
20260504235006 66 295 1.0 3.0 0.00 0.00 0.00 64 1033.6
20260504234506 66 150 1.0 3.0 0.00 0.00 0.00 63 1033.7
20260504234005 66 147 1.0 3.0 0.00 0.00 0.00 66 1033.7
20260504233505 66 124 1.0 3.0 0.00 0.00 0.00 65 1033.8
20260504233005 66 313 1.0 3.0 0.00 0.00 0.00 66 1033.8
20260504232506 66 253 1.0 3.0 0.00 0.00 0.00 66 1033.8
20260504232006 66 306 1.0 3.0 0.00 0.00 0.00 67 1033.9
20260504231006 66 20 1.0 3.0 0.00 0.00 0.00 68 1034.0
20260504230005 65 89 1.0 3.0 0.00 0.00 0.00 68 1034.0
20260504225505 65 78 0.0 3.0 0.00 0.00 0.00 71 1034.1
20260504225006 64 35 1.0 2.0 0.00 0.00 0.00 71 1034.1
20260504223506 64 123 1.0 3.0 0.00 0.00 0.00 72 1034.0
20260504223005 64 151 1.0 3.0 0.00 0.00 0.00 73 1033.9
20260504222505 63 152 1.0 3.0 0.00 0.00 0.00 72 1033.9
20260504222005 63 146 1.0 3.0 0.00 0.00 0.00 74 1033.9
20260504221505 62 209 2.0 3.0 0.00 0.00 0.00 74 1033.9
20260504220006 62 138 0.0 2.0 0.00 0.00 0.00 77 1033.9
20260504215005 61 160 1.0 5.0 0.00 0.00 0.00 75 1033.9
20260504214506 61 202 2.0 5.0 0.00 0.00 0.00 76 1033.9
20260504214006 61 184 1.0 3.0 0.00 0.00 0.00 76 1033.9
20260504213505 61 151 1.0 3.0 0.00 0.00 0.00 77 1033.9
20260504213006 60 128 0.0 3.0 0.00 0.00 0.00 77 1033.9
20260504212505 60 179 1.0 3.0 0.00 0.00 0.00 78 1033.8
20260504212006 60 158 1.0 3.0 0.00 0.00 0.00 79 1033.8
20260504211505 59 159 1.0 5.0 0.00 0.00 0.00 79 1033.8
20260504211005 59 189 3.0 5.0 0.00 0.00 0.00 79 1033.8
20260504210005 59 162 2.0 5.0 0.00 0.00 0.00 78 1033.9
20260504205505 59 150 1.0 5.0 0.00 0.00 0.00 79 1033.9
20260504205005 58 165 1.0 6.0 0.00 0.00 0.00 81 1033.9
20260504204505 58 178 3.0 6.0 0.00 0.00 0.00 82 1033.9
20260504204005 57 196 2.0 3.0 0.00 0.00 0.00 84 1033.9
20260504203505 56 189 1.0 3.0 0.00 0.00 0.00 85 1034.0
20260504203005 55 201 0.0 3.0 0.00 0.00 0.00 87 1034.0
20260504202505 55 101 1.0 3.0 0.00 0.00 0.00 88 1033.9
20260504202006 55 140 2.0 3.0 0.00 0.00 0.00 88 1033.9
20260504201506 54 141 0.0 3.0 0.00 0.00 0.00 89 1034.0
20260504201005 54 183 0.0 0.0 0.00 0.00 0.00 89 1034.0
20260504200006 54 183 0.0 0.0 0.00 0.00 0.00 88 1033.9
20260504195505 54 183 0.0 0.0 0.00 0.00 0.00 88 1033.9
20260504195005 54 183 0.0 0.0 0.00 0.00 0.00 88 1033.9
20260504194505 54 183 0.0 0.0 0.00 0.00 0.00 88 1033.9
20260504194005 54 183 0.0 0.0 0.00 0.00 0.00 87 1033.8
20260504193505 54 198 0.0 0.0 0.00 0.00 0.00 87 1033.8
20260504193005 54 198 0.0 0.0 0.00 0.00 0.00 87 1033.9
20260504192506 54 198 0.0 0.0 0.00 0.00 0.00 87 1033.8
20260504192005 54 198 0.0 0.0 0.00 0.00 0.00 87 1033.8
20260504191505 54 198 0.0 0.0 0.00 0.00 0.00 87 1033.8
20260504190006 53 89 0.0 0.0 0.00 0.00 0.00 87 1033.7
20260504185506 54 89 0.0 0.0 0.00 0.00 0.00 87 1033.5
20260504184005 54 174 0.0 0.0 0.00 0.00 0.00 86 1033.5
20260504183505 54 278 0.0 0.0 0.00 0.00 0.00 86 1033.5
20260504183005 54 298 0.0 0.0 0.00 0.00 0.00 87 1033.5
20260504182505 54 325 0.0 0.0 0.00 0.00 0.00 87 1033.6
20260504182005 54 320 0.0 0.0 0.00 0.00 0.00 87 1033.6
20260504181505 54 289 0.0 0.0 0.00 0.00 0.00 87 1033.4
20260504181005 54 153 0.0 0.0 0.00 0.00 0.00 87 1033.4
20260504180006 53 73 0.0 2.0 0.00 0.00 0.00 87 1033.4
20260504175505 54 83 0.0 3.0 0.00 0.00 0.00 87 1033.4
20260504173505 53 141 0.0 3.0 0.00 0.00 0.00 88 1033.4
20260504173006 53 133 1.0 3.0 0.00 0.00 0.00 88 1033.4
20260504172505 53 158 2.0 3.0 0.00 0.00 0.00 88 1033.4
20260504172005 53 138 2.0 3.0 0.00 0.00 0.00 88 1033.4
20260504171506 52 146 1.0 3.0 0.00 0.00 0.00 89 1033.4
20260504171005 52 178 0.0 0.0 0.00 0.00 0.00 89 1033.4
20260504151005 53 142 2.0 6.0 0.00 0.00 0.00 85 1033.9
20260504141005 53 140 1.0 2.0 0.00 0.00 0.00 87 1034.7
20260504082005 52 139 0.0 0.0 0.00 0.00 0.00 87 1035.3
20260504081006 53 143 0.0 0.0 0.00 0.00 0.00 87 1035.3